Back to catalog

STARLINK-30221

AliveCommunicationsVLEO
NORAD 57418·PAYLOAD·🇺🇸 United States

Launched Jul 20, 2023 from Vandenberg Space Force Base

Loading…

Next Passes (next 24 hours)

TLE

FreshSource: CelesTrak SupGP

Epoch: Sep 14, 2026, 20:33 UTC

1 57418C 23102Q   26257.85673611  .00459220  00000+0  59230-2 0  2571
2 57418  42.9994 262.2134 0001778 277.4024 191.1064 15.57865947    13

Track STARLINK-30221 in real time with AllMySat

Download on the App Store